Weather observations for the past three days for
Spokane, Spokane International Airport
Imperial (Metric)
Date Time (pdt) Wind (mph) Vis. (mi.) Weather Sky Cond. Temperature (ºF) Relative Humidity Wind Chill (°F) Heat Index (°F) Pressure Precipitation (in)
Air Dwpt 6 hour altimeter (in) sea level (mb) 1 hr 3 hr 6 hr
Max. Min.
16 07:53 SE 6 10.00 Partly Cloudy SCT130 SCT230 73.9 41 31% 30.05 1015.2
16 06:53 SE 8 10.00 Partly Cloudy SCT130 SCT230 69.1 41 36% 30.03 1014.6
16 05:53 S 6 10.00 Mostly Cloudy BKN130 68 39.9 36% 30.02 1014.3
16 04:53 S 6 10.00 Partly Cloudy SCT120 69.1 39 79 68 33% 30 1013.6
16 03:53 S 9 10.00 A Few Clouds FEW075 69.1 37.9 32% 29.99 1013.3
16 02:53 S 8 10.00 A Few Clouds FEW075 69.1 37.9 32% 29.98 1013.1
16 01:53 S 3 10.00 Partly Cloudy SCT075 72 37.9 29% 29.98 1013.2
16 00:53 S 8 10.00 A Few Clouds FEW080 72 37 28% 29.97 1012.8
15 23:53 S 7 10.00 A Few Clouds FEW080 75.9 37.9 25% 77 29.97 1012.6
15 22:53 S 6 10.00 A Few Clouds FEW080 79 35.1 91.9 79 20% 78 29.97 1012.5
15 21:53 S 6 10.00 A Few Clouds FEW080 82.9 35.1 18% 80 29.97 1012.5
15 20:53 S 5 10.00 A Few Clouds FEW080 86 36 17% 83 29.96 1012.3
15 19:53 S 5 10.00 A Few Clouds FEW080 90 36 15% 86 29.95 1012.0
15 18:53 SW 8 10.00 Fair CLR 91 36 14% 87 29.96 1012.2
15 17:53 W 8 10.00 A Few Clouds FEW080 91.9 35.1 13% 88 29.96 1012.4
15 16:53 W 7 10.00 A Few Clouds FEW080 91.9 33.1 93 82.9 12% 88 29.97 1012.8
15 15:53 Vrbl 6 G 17 10.00 A Few Clouds FEW080 90 34 14% 86 29.99 1013.2
15 14:53 Vrbl 3 G 17 10.00 A Few Clouds FEW080 90 36 15% 86 30 1013.6
15 13:53 Vrbl 3 10.00 A Few Clouds FEW080 FEW250 88 36 16% 84 30.02 1014.0
15 12:53 S 10 10.00 A Few Clouds FEW080 FEW250 87.1 37 17% 84 30.03 1014.4
15 11:53 SW 8 10.00 A Few Clouds FEW080 FEW250 84.9 39.9 20% 82 30.04 1014.6
15 10:53 SW 13 10.00 A Few Clouds FEW080 FEW250 82.9 39 82.9 64.9 21% 81 30.04 1015.0
15 09:53 S 9 10.00 A Few Clouds FEW080 FEW250 79 41 26% 78 30.05 1015.2
15 08:53 Vrbl 6 10.00 A Few Clouds FEW080 FEW250 77 42.1 29% 78 30.05 1015.1
15 07:53 S 8 10.00 A Few Clouds FEW080 FEW250 72 42.1 34% 30.04 1014.9
15 06:53 S 9 10.00 A Few Clouds FEW080 FEW150 FEW230 68 42.1 39% 30.03 1014.6
15 05:53 S 8 10.00 A Few Clouds FEW150 FEW200 64.9 44.1 47% 30 1013.7
15 04:53 SE 7 10.00 A Few Clouds FEW080 FEW110 66.9 46 82.9 66.9 47% 29.99 1013.2
15 03:53 S 9 10.00 A Few Clouds FEW080 71.1 45 39% 29.98 1012.7
15 02:53 S 13 10.00 Fair CLR 73 43 34% 29.96 1011.8
15 01:53 S 10 10.00 Fair CLR 75.9 39.9 27% 77 29.95 1011.5
15 00:53 S 10 10.00 Fair CLR 77 39 26% 77 29.94 1011.3
14 23:53 SW 8 10.00 Fair CLR 82 39 22% 80 29.93 1010.8
14 22:53 SW 12 10.00 Fair CLR 82.9 39 98.1 82.9 21% 81 29.92 1010.7
14 21:53 SW 12 10.00 A Few Clouds FEW050 FEW100 84 37.9 19% 81 29.92 1010.7
14 20:53 SW 12 10.00 A Few Clouds FEW050 FEW100 89.1 37 16% 85 29.91 1010.5
14 19:53 SW 12 10.00 A Few Clouds FEW120 91.9 37 14% 88 29.9 1010.1
14 18:53 W 15 10.00 A Few Clouds FEW120 95 36 13% 90 29.9 1010.2
14 17:53 SW 14 G 20 10.00 A Few Clouds FEW120 96.1 36 12% 91 29.9 1010.2
14 16:53 SW 17 G 24 10.00 A Few Clouds FEW200 98.1 35.1 98.1 87.1 11% 93 29.91 1010.4
14 15:53 SW 17 G 26 10.00 A Few Clouds FEW200 98.1 39 13% 93 29.92 1010.6
14 14:53 W 14 G 23 10.00 A Few Clouds FEW065 FEW200 97 39 13% 92 29.93 1011.1
14 13:53 S 13 G 21 10.00 A Few Clouds FEW200 96.1 39.9 14% 92 29.94 1011.3
14 12:53 SW 12 G 23 10.00 A Few Clouds FEW200 93 45 19% 89 29.96 1011.8
14 11:53 SW 18 G 28 10.00 A Few Clouds FEW200 93 48 21% 90 29.96 1012.1
14 10:53 S 13 G 21 10.00 A Few Clouds FEW200 88 48.9 88 68 26% 85 29.97 1012.3
14 09:53 SW 13 10.00 A Few Clouds FEW200 84 48.9 30% 82 29.97 1012.4
14 08:53 S 6 10.00 A Few Clouds FEW200 79 48.9 35% 79 29.98 1012.7
14 07:53 S 8 10.00 A Few Clouds FEW200 75 46 36% 77 29.97 1012.3
14 06:53 S 8 10.00 A Few Clouds FEW200 70 44.1 39% 29.96 1012.0
14 05:53 S 12 10.00 A Few Clouds FEW120 FEW200 69.1 45 42% 29.94 1011.4
14 04:53 S 12 10.00 A Few Clouds FEW120 FEW250 70 44.1 82.9 70 39% 29.93 1010.9
14 03:53 S 10 10.00 Fair CLR 71.1 45 39% 29.93 1011.2
14 02:53 S 8 10.00 Fair CLR 71.1 44.1 38% 29.93 1011.1
14 01:53 S 7 10.00 Fair CLR 75 43 32% 77 29.93 1011.0
14 00:53 SE 6 10.00 Fair CLR 78.1 42.1 28% 78 29.93 1011.0
13 23:53 S 7 10.00 Fair CLR 79 42.1 27% 78 29.93 1011.1
13 22:53 SW 7 10.00 Fair CLR 82.9 41 98.1 82 23% 81 29.93 1010.8
13 21:53 SW 7 10.00 Fair CLR 84.9 43 23% 82 29.92 1010.7
13 20:53 SW 5 10.00 Fair CLR 91 39.9 17% 87 29.92 1010.5
13 19:53 W 6 10.00 Fair CLR 95 39 14% 91 29.91 1010.3
13 18:53 S 6 10.00 Fair CLR 96.1 37 13% 91 29.92 1010.5
13 17:53 SW 9 10.00 Fair CLR 97 36 12% 92 29.93 1011.1
13 16:53 SW 9 10.00 Fair CLR 98.1 35.1 99 90 11% 93 29.94 1011.6
13 15:53 S 8 G 17 10.00 Fair CLR 97 37 12% 92 29.96 1012.0
13 14:53 W 10 G 18 10.00 A Few Clouds FEW070 96.1 36 12% 91 29.97 1012.3
13 13:53 SW 10 G 16 10.00 A Few Clouds FEW065 96.1 37.9 13% 91 29.99 1012.8
13 12:53 Calm 10.00 A Few Clouds FEW065 93.9 41 16% 90 30 1013.2
13 11:53 Vrbl 7 10.00 Fair CLR 93 42.1 17% 89 30.01 1013.5
13 10:53 Vrbl 5 10.00 Fair CLR 89.1 48.9 89.1 68 25% 86 30.01 1013.7
13 09:53 E 5 10.00 Fair CLR 84 50 31% 82 30.02 1013.9
13 08:53 Vrbl 5 10.00 Fair CLR 78.1 48.9 36% 79 30.03 1014.2
Date Time (pdt) Wind (mph) Vis. (mi.) Weather Sky Cond. Air Dwpt Max. Min. Relative Humidity Wind Chill (°F) Heat Index (°F) altimeter (in) sea level (mb) 1 hr 3 hr 6 hr
6 hour
Temperature (ºF) Pressure Precipitation (in)